SCP
0 -0 0 0 0 0 0 0 0 0 0 0 0 0 0 0 0 -0 0 -0 -0 -0 0 -0 -0 -0 -0 -0 -0 -0 -0 -0 -0 -0 -0 -0 -0 -0 -0 0 0 0 0 0
0 -0 0 0 0 0 0 0 0 0 0 0 -0 0 -0 0 -0 -0 0 -0 0 0 0 0 -0 0 -0 -0 -0 -0 -0 -0 -0 -0 -0 -0 -0 -0 -0 0 0 -0 -0 0
-0 0 0 0 0 0 0 0 0 0 0 0 0 0 -0 0 0 0 0 -0 -0 0 0 0 0 0 0 0 -0 -0 -0 -0 -0 -0 -0 -0 -0 -0 0 0 -0 0 0 0
0 0 0 0 0 0 0 0 0 0 0 -0 0 -0 0 0 0 0 0 0 0 0 0 0 0 0 0 -0 -0 -0 -0 -0 -0 -0 -0 -0 -0 0 0 1 1 1 1 1
0 0 0 0 0 0 0 0 0 0 0 0 0 0 0 0 0 0 0 0 0 0 0 0 0 0 0 0 0 0 1 -0 0 0 -0 0 -0 0 0 0 1 3 3 2
0 0 0 0 0 0 0 0 0 0 0 0 0 0 0 0 0 0 0 0 0 0 0 0 0 0 0 0 0 0 1 0 -1 0 0 0 -0 0 1 1 1 4 2 1
-0 -0 0 -0 0 0 0 0 0 0 0 0 0 0 0 0 0 0 0 0 0 0 0 0 0 0 0 0 0 0 1 1 1 0 1 0 0 2 2 3 5 5 2 0
0 0 0 0 -0 0 0 0 0 0 0 0 0 0 0 0 0 0 0 0 0 0 0 0 0 0 0 1 1 0 -0 1 1 2 1 2 1 3 4 5 7 7 6 4
0 0 0 0 0 -0 0 0 0 0 0 0 0 0 0 0 0 0 0 0 0 0 0 0 0 0 0 0 0 0 0 -0 1 1 2 3 4 3 4 5 12 9 6 8
0 0 0 0 0 0 0 0 0 0 0 -0 0 0 0 0 0 0 0 0 0 0 0 0 0 0 0 0 0 0 0 0 -0 -0 0 2 4 4 4 7 10 10 9 7
0 0 0 0 0 0 0 0 0 0 0 0 0 0 0 0 0 0 0 0 0 0 0 0 0 0 0 0 0 0 0 -0 0 0 0 0 1 3 5 7 8 9 7 7
0 0 0 0 0 0 0 0 0 0 0 0 0 0 0 0 0 0 0 0 0 0 0 0 0 0 0 0 0 0 0 0 0 -0 0 0 0 0 3 5 5 6 6 6
0 0 0 0 0 0 0 0 0 0 0 0 0 0 0 0 0 0 0 0 0 0 0 0 0 0 0 0 0 0 0 0 0 0 -0 -0 0 0 1 3 4 4 3 4
0 0 0 0 0 0 0 0 0 0 0 0 0 0 0 0 0 0 0 0 -0 -0 0 0 0 0 0 0 0 0 0 0 0 0 1 -0 -1 -0 0 2 3 2 2 4
0 0 0 0 0 0 0 0 0 0 0 0 0 0 0 0 0 0 0 0 0 0 0 0 0 0 0 0 0 0 0 0 0 0 0 1 0 -0 0 1 2 1 2 2
0 0 0 0 0 0 0 0 0 0 0 0 0 0 0 0 0 0 0 0 0 0 0 0 0 0 0 0 0 0 0 0 0 0 0 0 1 1 1 0 1 1 1 2
0 0 0 0 0 0 0 0 0 0 0 0 0 0 0 0 0 0 0 0 0 0 0 0 0 0 0 0 0 0 0 0 0 0 0 0 1 1 0 1 2 1 1 2
0 0 0 0 0 0 0 0 0 0 0 0 0 0 0 0 0 0 0 0 0 0 0 0 0 0 0 0 0 0 0 0 0 0 0 0 0 0 1 1 2 2 3 3
0 0 0 0 0 0 0 0 0 0 0 0 0 0 0 0 0 0 0 0 0 0 0 0 0 0 0 0 0 0 0 0 0 0 0 0 0 0 0 0 1 2 2 3
0 0 0 0 0 0 0 0 0 0 0 0 0 0 0 0 0 0 0 0 0 0 0 0 0 0 0 0 0 0 0 0 0 0 0 0 0 0 0 0 1 2 2 1
0 0 0 0 0 0 0 0 0 0 0 0 0 0 0 0 0 0 0 0 0 0 0 0 0 0 0 0 0 0 0 0 0 0 0 0 0 0 0 0 1 1 1 1
0 0 0 0 0 0 0 0 0 0 0 0 0 0 0 0 0 0 0 0 0 0 0 0 0 0 0 0 0 0 0 0 0 0 0 0 0 0 0 0 0 1 1 0
0 0 0 0 0 0 0 0 0 0 0 0 0 0 0 0 0 0 0 0 0 0 0 0 0 0 0 0 0 0 0 0 0 0 0 0 0 0 0 0 0 1 1 0
0 0 0 0 0 0 0 0 0 0 0 0 0 0 0 0 0 0 0 0 0 0 0 0 0 0 0 0 0 0 0 0 0 0 0 0 0 0 0 0 0 0 0 0
0 0 0 0 0 0 0 0 0 0 0 0 0 0 0 -0 0 0 0 0 0 0 0 0 0 0 0 0 0 0 0 0 0 0 0 0 0 -0 0 0 0 0 0 0
0 0 0 0 0 0 0 0 0 0 0 0 0 -0 0 0 0 0 0 0 0 0 0 0 0 0 0 0 0 0 0 0 0 0 0 0 0 -0 0 0 0 0 0 0
Wind_Speed_500mb
21 18 22 20 6 16 15 18 22 18 17 17 28 21 23 13 19 29 32 34 42 56 43 49 53 55 55 56 61 73 77 78 79 77 70 66 62 65 62 54 53 51 53 49
16 25 12 8 11 14 15 19 23 23 23 15 29 27 28 19 22 26 33 32 39 41 45 49 55 58 61 64 72 78 82 84 86 82 80 71 66 61 59 53 55 61 58 56
25 4 10 18 15 19 21 20 15 17 4 25 29 33 36 29 18 23 27 30 34 39 42 49 56 65 67 76 78 86 87 87 90 87 81 81 68 62 61 64 60 70 69 62
19 14 16 16 18 22 20 20 12 12 17 19 17 24 28 23 15 18 25 27 26 21 26 39 50 58 67 74 70 80 91 92 93 92 87 86 78 80 75 67 58 49 59 58
9 11 20 24 23 14 5 2 11 16 19 17 24 15 15 10 20 23 19 15 21 18 15 21 34 48 56 58 64 67 78 95 99 101 103 105 103 90 71 63 53 58 70 67
25 4 12 19 14 16 7 20 16 16 22 22 28 13 23 8 8 14 7 14 11 15 13 8 11 27 46 53 62 68 80 99 105 110 112 114 116 113 83 79 62 58 76 66
18 27 20 20 26 23 19 21 18 19 18 17 10 12 22 24 16 11 6 12 18 20 20 19 19 16 12 25 49 61 77 95 100 116 121 123 125 123 120 95 83 83 92 68
12 14 19 13 20 12 20 15 17 16 18 20 14 13 17 22 13 10 12 13 18 22 25 28 27 23 22 20 17 32 58 82 85 97 105 123 131 129 128 118 98 104 113 88
7 9 7 10 12 15 9 20 13 20 28 21 28 25 20 9 15 13 15 17 24 26 28 28 30 35 32 30 28 28 32 46 69 84 98 95 109 115 115 109 104 111 118 104
7 13 2 5 10 11 16 9 13 16 24 33 25 13 17 22 14 11 17 22 24 26 29 30 32 35 36 37 37 35 31 25 32 54 71 83 88 90 100 98 97 105 103 102
3 5 9 7 11 15 8 17 10 10 15 23 27 16 11 17 14 11 17 22 28 32 35 37 38 38 36 38 41 45 44 36 30 29 42 58 74 80 85 95 92 97 93 106
8 7 16 24 28 11 20 20 13 17 22 17 15 25 16 16 15 18 20 25 27 31 35 37 40 42 43 44 46 47 47 46 36 33 35 41 50 56 71 78 81 84 93 93
5 5 14 21 18 9 6 4 6 5 12 26 26 23 15 11 10 17 23 28 28 29 33 36 40 44 48 51 52 51 51 49 47 39 34 38 40 46 61 65 70 76 76 82
4 9 18 22 26 20 26 28 24 22 18 29 32 39 23 12 18 22 22 23 26 27 31 36 41 46 48 51 53 54 54 53 52 49 40 36 40 42 46 57 66 69 70 76
4 13 20 25 30 30 33 35 36 36 37 37 41 44 40 25 18 21 23 23 26 28 33 39 47 52 55 57 58 58 58 57 56 54 47 42 37 47 51 53 62 58 68 78
0 14 16 29 31 28 30 31 34 34 35 33 32 32 22 16 19 23 29 33 30 32 36 41 45 49 54 59 62 64 62 62 61 57 53 47 42 44 51 55 56 64 69 72
8 10 13 22 6 21 26 17 15 17 6 12 19 17 21 22 25 32 42 45 39 36 44 54 57 57 58 61 62 64 67 64 60 58 55 50 42 42 48 55 58 61 65 71
14 14 12 14 11 24 12 10 9 10 7 9 9 16 26 32 30 43 52 42 35 45 64 68 65 63 62 61 60 59 61 67 62 56 55 53 51 45 38 50 58 61 58 71
27 16 11 11 16 24 24 10 6 12 10 5 16 27 36 43 45 52 29 38 51 64 67 65 64 65 64 64 61 59 60 61 65 59 52 54 55 52 47 49 61 61 70 64
17 18 13 9 18 18 18 11 12 10 21 13 32 36 41 48 31 32 67 68 67 64 63 64 66 65 65 64 63 63 62 61 61 59 55 60 57 51 53 50 56 71 66 66
17 16 22 19 20 11 13 14 16 22 10 40 40 43 47 37 49 65 69 73 72 72 73 73 73 73 70 66 63 64 63 61 60 56 58 58 58 48 52 51 49 63 77 72
9 8 12 8 13 23 16 3 13 27 45 37 46 50 54 61 68 71 71 71 70 74 75 75 81 79 72 65 61 63 60 57 57 55 54 54 54 59 45 54 54 56 74 77
7 6 10 6 9 4 5 16 23 20 33 45 54 61 64 66 64 66 68 69 70 73 75 73 77 77 71 68 62 63 60 56 55 55 55 54 53 58 54 64 58 54 65 79
7 4 10 9 8 11 27 23 14 32 44 52 53 56 57 62 63 65 67 65 73 73 73 74 73 70 73 67 67 62 58 56 56 57 55 53 54 55 60 58 54 48 60 81
9 0 10 17 27 21 5 19 37 50 46 46 51 55 60 62 63 65 66 68 76 67 65 62 64 68 72 71 65 58 57 55 54 57 54 52 48 45 59 57 54 44 52 76
12 6 11 11 25 26 35 46 47 42 45 48 50 58 60 62 64 60 61 62 56 66 70 71 69 66 70 59 59 57 58 57 56 55 51 50 51 46 54 55 54 45 40 52
Wind_Direction_500mb
201 223 219 226 229 306 281 265 264 270 261 280 263 272 273 282 245 247 243 229 230 232 226 217 209 206 206 213 217 218 215 217 217 215 214 216 216 217 219 220 219 217 223 230
191 230 244 240 233 238 240 254 253 254 264 253 262 255 260 256 250 266 273 254 238 237 227 220 213 209 210 213 218 222 223 221 221 221 220 219 219 220 221 222 223 223 226 231
251 70 30 208 203 226 229 252 259 269 190 244 261 263 254 242 245 260 261 263 257 247 235 223 217 215 213 217 219 222 225 225 224 222 224 223 221 221 225 221 225 226 227 231
255 261 213 226 237 221 250 196 242 264 252 265 198 269 219 222 243 253 266 258 267 263 248 235 227 227 226 225 221 226 228 227 229 228 224 225 222 225 223 225 223 221 229 231
98 194 213 228 226 203 298 86 281 282 256 292 216 251 262 147 247 249 277 289 314 306 285 252 239 238 239 240 235 236 236 234 233 234 231 232 232 231 228 230 225 221 230 231
274 214 259 244 241 230 316 269 243 247 255 245 251 254 277 228 233 287 25 40 20 28 17 357 290 260 252 247 244 238 238 241 237 237 237 237 238 237 229 229 225 217 235 235
216 228 223 242 234 207 235 255 258 229 215 248 84 253 271 316 330 35 72 52 41 32 32 29 17 5 331 259 249 245 241 243 249 244 243 242 242 242 242 228 223 222 232 220
267 170 184 157 228 258 206 261 279 293 278 286 145 254 256 82 57 98 86 61 39 27 17 8 8 8 358 344 306 255 248 252 242 249 251 251 249 246 244 239 226 224 240 230
256 230 135 197 279 250 169 232 298 279 267 261 268 256 230 121 109 88 64 44 29 19 14 6 3 2 3 358 344 323 297 256 249 243 251 254 253 252 239 233 227 230 240 232
56 274 55 108 254 210 260 7 250 218 263 270 269 257 253 163 101 58 42 28 21 15 10 3 2 360 1 0 357 354 339 311 270 251 246 250 253 256 252 233 225 226 230 229
327 265 251 263 248 319 221 236 209 299 289 288 283 277 23 73 66 44 24 12 6 1 359 356 359 357 356 355 356 358 3 348 321 286 257 252 247 247 247 241 228 225 228 232
47 302 271 284 305 299 277 284 276 266 269 247 289 281 95 90 63 15 5 1 358 356 354 353 352 352 354 356 357 356 355 357 347 312 282 262 255 247 241 237 228 227 225 232
15 200 282 249 180 206 222 119 159 280 270 262 274 283 148 134 31 12 353 350 348 348 349 349 350 352 352 353 354 353 352 348 347 345 306 279 264 251 243 238 231 227 226 227
324 261 266 281 305 318 288 282 266 280 271 279 269 278 236 224 14 354 344 340 341 344 348 348 347 345 345 346 345 345 345 346 342 339 335 299 275 257 246 242 234 231 228 227
318 269 284 277 284 282 276 273 272 269 272 272 284 290 296 10 344 342 334 324 328 334 338 341 340 339 338 337 337 336 336 336 337 335 331 325 296 275 258 244 239 239 231 227
107 277 285 275 276 281 279 272 266 265 272 280 285 284 34 342 327 329 326 327 310 322 329 331 329 327 326 327 328 327 328 328 329 329 329 326 313 294 270 252 243 237 235 233
258 271 252 272 296 296 273 287 291 302 354 309 294 4 340 321 328 328 319 313 304 310 321 322 319 317 316 316 315 317 319 321 323 322 321 323 320 304 289 271 251 240 234 236
245 232 259 279 283 260 73 40 14 324 342 4 351 352 336 320 320 311 306 303 307 311 315 313 311 310 310 310 308 307 311 314 317 316 316 314 316 304 283 279 270 254 249 241
223 233 257 257 245 291 268 113 339 322 289 77 351 330 325 321 314 298 316 331 308 304 306 306 306 305 305 306 306 305 306 308 309 310 311 311 311 307 298 273 270 268 245 246
186 236 248 230 275 282 79 59 339 309 269 75 339 326 325 323 306 310 319 314 309 304 304 303 304 303 301 301 302 300 301 303 303 305 304 314 314 303 297 288 273 265 267 258
186 219 235 255 258 268 46 356 300 248 346 328 323 316 314 306 301 304 306 305 305 303 301 300 297 296 295 296 297 297 296 296 301 299 301 309 315 307 302 291 275 268 264 263
248 250 235 241 277 262 24 225 335 335 319 316 312 312 307 303 304 305 306 307 308 306 305 302 297 292 291 290 290 291 291 296 300 298 297 298 307 316 306 300 284 266 261 263
245 331 331 289 15 149 1 318 313 308 307 308 308 308 307 304 305 306 307 308 307 306 302 301 298 297 293 287 282 284 286 294 298 299 295 294 298 307 311 311 298 272 259 252
183 258 257 309 163 321 312 308 314 319 313 311 308 304 302 301 301 302 305 304 309 308 305 302 303 292 295 293 283 279 285 286 293 294 295 293 294 301 307 315 308 277 261 249
335 224 273 278 270 317 272 321 318 316 311 312 309 306 304 303 300 302 304 304 305 306 305 303 299 299 299 296 289 280 281 283 287 289 293 290 291 295 306 312 316 312 259 251
208 271 259 306 337 308 303 311 313 313 314 315 317 316 314 312 307 306 307 315 316 315 310 302 294 296 298 299 294 286 275 278 285 286 291 289 286 293 301 306 308 306 293 256
Wind_Speed_850mb
21 18 22 20 6 16 15 18 22 18 17 17 28 21 23 13 19 29 32 34 42 56 43 49 53 55 55 56 61 73 77 78 79 77 70 66 62 65 62 54 53 51 53 49
16 25 12 8 11 14 15 19 23 23 23 15 29 27 28 19 22 26 33 32 39 41 45 49 55 58 61 64 72 78 82 84 86 82 80 71 66 61 59 53 55 61 58 56
25 4 10 18 15 19 21 20 15 17 4 25 29 33 36 29 18 23 27 30 34 39 42 49 56 65 67 76 78 86 87 87 90 87 81 81 68 62 61 64 60 70 69 62
19 14 16 16 18 22 20 20 12 12 17 19 17 24 28 23 15 18 25 27 26 21 26 39 50 58 67 74 70 80 91 92 93 92 87 86 78 80 75 67 58 49 59 58
9 11 20 24 23 14 5 2 11 16 19 17 24 15 15 10 20 23 19 15 21 18 15 21 34 48 56 58 64 67 78 95 99 101 103 105 103 90 71 63 53 58 70 67
25 4 12 19 14 16 7 20 16 16 22 22 28 13 23 8 8 14 7 14 11 15 13 8 11 27 46 53 62 68 80 99 105 110 112 114 116 113 83 79 62 58 76 66
18 27 20 20 26 23 19 21 18 19 18 17 10 12 22 24 16 11 6 12 18 20 20 19 19 16 12 25 49 61 77 95 100 116 121 123 125 123 120 95 83 83 92 68
12 14 19 13 20 12 20 15 17 16 18 20 14 13 17 22 13 10 12 13 18 22 25 28 27 23 22 20 17 32 58 82 85 97 105 123 131 129 128 118 98 104 113 88
7 9 7 10 12 15 9 20 13 20 28 21 28 25 20 9 15 13 15 17 24 26 28 28 30 35 32 30 28 28 32 46 69 84 98 95 109 115 115 109 104 111 118 104
7 13 2 5 10 11 16 9 13 16 24 33 25 13 17 22 14 11 17 22 24 26 29 30 32 35 36 37 37 35 31 25 32 54 71 83 88 90 100 98 97 105 103 102
3 5 9 7 11 15 8 17 10 10 15 23 27 16 11 17 14 11 17 22 28 32 35 37 38 38 36 38 41 45 44 36 30 29 42 58 74 80 85 95 92 97 93 106
8 7 16 24 28 11 20 20 13 17 22 17 15 25 16 16 15 18 20 25 27 31 35 37 40 42 43 44 46 47 47 46 36 33 35 41 50 56 71 78 81 84 93 93
5 5 14 21 18 9 6 4 6 5 12 26 26 23 15 11 10 17 23 28 28 29 33 36 40 44 48 51 52 51 51 49 47 39 34 38 40 46 61 65 70 76 76 82
4 9 18 22 26 20 26 28 24 22 18 29 32 39 23 12 18 22 22 23 26 27 31 36 41 46 48 51 53 54 54 53 52 49 40 36 40 42 46 57 66 69 70 76
4 13 20 25 30 30 33 35 36 36 37 37 41 44 40 25 18 21 23 23 26 28 33 39 47 52 55 57 58 58 58 57 56 54 47 42 37 47 51 53 62 58 68 78
0 14 16 29 31 28 30 31 34 34 35 33 32 32 22 16 19 23 29 33 30 32 36 41 45 49 54 59 62 64 62 62 61 57 53 47 42 44 51 55 56 64 69 72
8 10 13 22 6 21 26 17 15 17 6 12 19 17 21 22 25 32 42 45 39 36 44 54 57 57 58 61 62 64 67 64 60 58 55 50 42 42 48 55 58 61 65 71
14 14 12 14 11 24 12 10 9 10 7 9 9 16 26 32 30 43 52 42 35 45 64 68 65 63 62 61 60 59 61 67 62 56 55 53 51 45 38 50 58 61 58 71
27 16 11 11 16 24 24 10 6 12 10 5 16 27 36 43 45 52 29 38 51 64 67 65 64 65 64 64 61 59 60 61 65 59 52 54 55 52 47 49 61 61 70 64
17 18 13 9 18 18 18 11 12 10 21 13 32 36 41 48 31 32 67 68 67 64 63 64 66 65 65 64 63 63 62 61 61 59 55 60 57 51 53 50 56 71 66 66
17 16 22 19 20 11 13 14 16 22 10 40 40 43 47 37 49 65 69 73 72 72 73 73 73 73 70 66 63 64 63 61 60 56 58 58 58 48 52 51 49 63 77 72
9 8 12 8 13 23 16 3 13 27 45 37 46 50 54 61 68 71 71 71 70 74 75 75 81 79 72 65 61 63 60 57 57 55 54 54 54 59 45 54 54 56 74 77
7 6 10 6 9 4 5 16 23 20 33 45 54 61 64 66 64 66 68 69 70 73 75 73 77 77 71 68 62 63 60 56 55 55 55 54 53 58 54 64 58 54 65 79
7 4 10 9 8 11 27 23 14 32 44 52 53 56 57 62 63 65 67 65 73 73 73 74 73 70 73 67 67 62 58 56 56 57 55 53 54 55 60 58 54 48 60 81
9 0 10 17 27 21 5 19 37 50 46 46 51 55 60 62 63 65 66 68 76 67 65 62 64 68 72 71 65 58 57 55 54 57 54 52 48 45 59 57 54 44 52 76
12 6 11 11 25 26 35 46 47 42 45 48 50 58 60 62 64 60 61 62 56 66 70 71 69 66 70 59 59 57 58 57 56 55 51 50 51 46 54 55 54 45 40 52
Wind_Direction_850mb
201 223 219 226 229 306 281 265 264 270 261 280 263 272 273 282 245 247 243 229 230 232 226 217 209 206 206 213 217 218 215 217 217 215 214 216 216 217 219 220 219 217 223 230
191 230 244 240 233 238 240 254 253 254 264 253 262 255 260 256 250 266 273 254 238 237 227 220 213 209 210 213 218 222 223 221 221 221 220 219 219 220 221 222 223 223 226 231
251 70 30 208 203 226 229 252 259 269 190 244 261 263 254 242 245 260 261 263 257 247 235 223 217 215 213 217 219 222 225 225 224 222 224 223 221 221 225 221 225 226 227 231
255 261 213 226 237 221 250 196 242 264 252 265 198 269 219 222 243 253 266 258 267 263 248 235 227 227 226 225 221 226 228 227 229 228 224 225 222 225 223 225 223 221 229 231
98 194 213 228 226 203 298 86 281 282 256 292 216 251 262 147 247 249 277 289 314 306 285 252 239 238 239 240 235 236 236 234 233 234 231 232 232 231 228 230 225 221 230 231
274 214 259 244 241 230 316 269 243 247 255 245 251 254 277 228 233 287 25 40 20 28 17 357 290 260 252 247 244 238 238 241 237 237 237 237 238 237 229 229 225 217 235 235
216 228 223 242 234 207 235 255 258 229 215 248 84 253 271 316 330 35 72 52 41 32 32 29 17 5 331 259 249 245 241 243 249 244 243 242 242 242 242 228 223 222 232 220
267 170 184 157 228 258 206 261 279 293 278 286 145 254 256 82 57 98 86 61 39 27 17 8 8 8 358 344 306 255 248 252 242 249 251 251 249 246 244 239 226 224 240 230
256 230 135 197 279 250 169 232 298 279 267 261 268 256 230 121 109 88 64 44 29 19 14 6 3 2 3 358 344 323 297 256 249 243 251 254 253 252 239 233 227 230 240 232
56 274 55 108 254 210 260 7 250 218 263 270 269 257 253 163 101 58 42 28 21 15 10 3 2 360 1 0 357 354 339 311 270 251 246 250 253 256 252 233 225 226 230 229
327 265 251 263 248 319 221 236 209 299 289 288 283 277 23 73 66 44 24 12 6 1 359 356 359 357 356 355 356 358 3 348 321 286 257 252 247 247 247 241 228 225 228 232
47 302 271 284 305 299 277 284 276 266 269 247 289 281 95 90 63 15 5 1 358 356 354 353 352 352 354 356 357 356 355 357 347 312 282 262 255 247 241 237 228 227 225 232
15 200 282 249 180 206 222 119 159 280 270 262 274 283 148 134 31 12 353 350 348 348 349 349 350 352 352 353 354 353 352 348 347 345 306 279 264 251 243 238 231 227 226 227
324 261 266 281 305 318 288 282 266 280 271 279 269 278 236 224 14 354 344 340 341 344 348 348 347 345 345 346 345 345 345 346 342 339 335 299 275 257 246 242 234 231 228 227
318 269 284 277 284 282 276 273 272 269 272 272 284 290 296 10 344 342 334 324 328 334 338 341 340 339 338 337 337 336 336 336 337 335 331 325 296 275 258 244 239 239 231 227
107 277 285 275 276 281 279 272 266 265 272 280 285 284 34 342 327 329 326 327 310 322 329 331 329 327 326 327 328 327 328 328 329 329 329 326 313 294 270 252 243 237 235 233
258 271 252 272 296 296 273 287 291 302 354 309 294 4 340 321 328 328 319 313 304 310 321 322 319 317 316 316 315 317 319 321 323 322 321 323 320 304 289 271 251 240 234 236
245 232 259 279 283 260 73 40 14 324 342 4 351 352 336 320 320 311 306 303 307 311 315 313 311 310 310 310 308 307 311 314 317 316 316 314 316 304 283 279 270 254 249 241
223 233 257 257 245 291 268 113 339 322 289 77 351 330 325 321 314 298 316 331 308 304 306 306 306 305 305 306 306 305 306 308 309 310 311 311 311 307 298 273 270 268 245 246
186 236 248 230 275 282 79 59 339 309 269 75 339 326 325 323 306 310 319 314 309 304 304 303 304 303 301 301 302 300 301 303 303 305 304 314 314 303 297 288 273 265 267 258
186 219 235 255 258 268 46 356 300 248 346 328 323 316 314 306 301 304 306 305 305 303 301 300 297 296 295 296 297 297 296 296 301 299 301 309 315 307 302 291 275 268 264 263
248 250 235 241 277 262 24 225 335 335 319 316 312 312 307 303 304 305 306 307 308 306 305 302 297 292 291 290 290 291 291 296 300 298 297 298 307 316 306 300 284 266 261 263
245 331 331 289 15 149 1 318 313 308 307 308 308 308 307 304 305 306 307 308 307 306 302 301 298 297 293 287 282 284 286 294 298 299 295 294 298 307 311 311 298 272 259 252
183 258 257 309 163 321 312 308 314 319 313 311 308 304 302 301 301 302 305 304 309 308 305 302 303 292 295 293 283 279 285 286 293 294 295 293 294 301 307 315 308 277 261 249
335 224 273 278 270 317 272 321 318 316 311 312 309 306 304 303 300 302 304 304 305 306 305 303 299 299 299 296 289 280 281 283 287 289 293 290 291 295 306 312 316 312 259 251
208 271 259 306 337 308 303 311 313 313 314 315 317 316 314 312 307 306 307 315 316 315 310 302 294 296 298 299 294 286 275 278 285 286 291 289 286 293 301 306 308 306 293 256